Temp
-23 -24 -25 -25 -24 -24 -25 -25 -25 -25 -25 -25 -25 -26 -26 -26 -26 -25 -25 -25 -24 -23 -24 -23 -22 -22 -21 -20 -20 -19 -19 -18 -17 -16 -15 -15 -14 -13 -13 -13 -13 -12 -12 -12 -12 -11 -11 -10 -10 -10 -10 -10 -9 -9
-24 -25 -25 -25 -25 -25 -25 -26 -26 -26 -26 -26 -26 -27 -27 -27 -27 -26 -25 -25 -24 -24 -24 -23 -22 -22 -22 -21 -20 -20 -19 -18 -17 -16 -15 -15 -14 -13 -13 -13 -13 -12 -12 -11 -11 -11 -10 -10 -10 -10 -10 -10 -9 -9
-26 -26 -27 -26 -26 -26 -26 -26 -26 -26 -26 -26 -27 -27 -27 -27 -27 -26 -25 -25 -25 -24 -23 -23 -23 -22 -22 -21 -20 -19 -19 -19 -17 -16 -16 -15 -15 -14 -14 -13 -13 -13 -12 -12 -12 -11 -11 -10 -10 -9 -10 -9 -9 -10
-27 -27 -27 -27 -26 -26 -26 -26 -26 -26 -26 -27 -27 -27 -27 -27 -26 -26 -25 -25 -25 -24 -24 -23 -23 -22 -22 -21 -21 -21 -19 -18 -17 -17 -16 -15 -15 -15 -14 -14 -14 -12 -12 -12 -12 -12 -11 -10 -10 -10 -10 -10 -10 -10
-28 -27 -27 -27 -26 -26 -26 -26 -26 -26 -26 -26 -26 -26 -26 -26 -26 -26 -25 -24 -24 -23 -23 -23 -22 -23 -23 -22 -22 -20 -20 -18 -18 -16 -15 -15 -15 -15 -14 -14 -13 -13 -12 -12 -11 -12 -11 -11 -11 -11 -11 -10 -10 -10
-28 -27 -27 -26 -26 -26 -26 -26 -26 -26 -26 -26 -26 -26 -26 -26 -25 -25 -25 -24 -23 -24 -23 -23 -23 -23 -23 -22 -21 -21 -20 -18 -17 -17 -15 -15 -15 -15 -14 -14 -13 -13 -13 -13 -13 -13 -11 -11 -11 -11 -11 -11 -11 -11
-27 -27 -26 -26 -26 -26 -26 -26 -26 -26 -26 -26 -26 -26 -26 -25 -25 -25 -24 -24 -24 -24 -23 -23 -23 -23 -23 -22 -21 -20 -20 -19 -18 -17 -16 -16 -15 -15 -14 -14 -14 -13 -13 -12 -12 -12 -12 -12 -12 -11 -11 -11 -11 -11
-26 -26 -26 -26 -26 -26 -25 -25 -25 -26 -26 -26 -26 -26 -25 -25 -25 -24 -24 -24 -24 -24 -23 -23 -23 -22 -21 -21 -21 -19 -19 -18 -17 -17 -16 -16 -16 -15 -14 -14 -14 -13 -13 -13 -12 -12 -12 -13 -13 -12 -12 -12 -12 -11
-26 -26 -26 -26 -26 -26 -25 -25 -25 -25 -26 -26 -26 -25 -25 -24 -24 -24 -24 -24 -23 -23 -23 -22 -22 -21 -20 -21 -21 -19 -19 -18 -17 -17 -17 -16 -15 -15 -14 -14 -14 -13 -13 -13 -12 -13 -13 -12 -11 -12 -12 -13 -13 -13
-25 -25 -25 -25 -25 -25 -25 -25 -25 -25 -25 -25 -25 -24 -24 -24 -24 -24 -24 -24 -23 -23 -22 -22 -21 -21 -21 -20 -20 -20 -19 -18 -17 -17 -16 -16 -15 -14 -14 -14 -14 -13 -13 -13 -13 -13 -13 -13 -13 -13 -13 -14 -13 -13
-25 -25 -25 -25 -25 -25 -25 -25 -25 -25 -25 -25 -25 -24 -25 -24 -24 -24 -24 -23 -22 -22 -22 -21 -21 -21 -21 -21 -21 -20 -19 -19 -17 -17 -16 -16 -15 -15 -14 -14 -13 -13 -13 -13 -13 -14 -15 -15 -15 -14 -14 -13 -13 -13
-25 -25 -25 -25 -25 -25 -25 -25 -24 -24 -24 -24 -24 -24 -24 -23 -24 -23 -23 -23 -22 -22 -21 -21 -21 -21 -20 -20 -20 -20 -19 -18 -17 -17 -16 -16 -16 -16 -15 -15 -14 -14 -15 -15 -15 -14 -14 -14 -15 -14 -14 -13 -13 -13
-25 -25 -25 -25 -24 -24 -25 -25 -24 -24 -24 -24 -24 -23 -23 -24 -24 -23 -23 -23 -22 -22 -21 -21 -21 -20 -20 -20 -20 -19 -19 -18 -18 -17 -17 -17 -16 -16 -16 -15 -15 -15 -15 -15 -15 -15 -15 -15 -14 -14 -14 -13 -13 -13
-25 -25 -25 -25 -24 -24 -25 -24 -24 -24 -24 -24 -23 -23 -22 -22 -22 -23 -23 -22 -22 -22 -21 -21 -21 -21 -20 -20 -20 -20 -19 -18 -18 -18 -18 -18 -17 -17 -17 -16 -16 -16 -16 -16 -16 -15 -15 -15 -15 -14 -14 -13 -13 -14
-24 -24 -24 -25 -25 -24 -24 -24 -24 -24 -23 -22 -22 -22 -22 -22 -22 -22 -22 -21 -21 -22 -21 -21 -20 -20 -20 -20 -20 -20 -19 -18 -18 -18 -17 -17 -18 -17 -17 -17 -17 -16 -16 -16 -16 -16 -16 -15 -15 -15 -15 -15 -15 -14
-24 -24 -24 -24 -24 -24 -23 -23 -23 -23 -23 -22 -22 -22 -22 -22 -22 -22 -22 -22 -22 -22 -21 -21 -20 -20 -20 -20 -19 -19 -19 -19 -18 -17 -17 -18 -18 -18 -17 -17 -17 -18 -17 -17 -17 -17 -16 -16 -15 -15 -15 -14 -14 -14
-23 -23 -23 -23 -23 -23 -23 -23 -23 -23 -23 -22 -22 -22 -22 -22 -21 -21 -21 -21 -21 -21 -21 -21 -20 -20 -20 -20 -19 -19 -19 -18 -18 -18 -18 -18 -18 -17 -18 -18 -18 -18 -17 -17 -17 -16 -16 -15 -15 -15 -15 -14 -14 -14
-22 -22 -22 -23 -22 -22 -22 -22 -23 -22 -22 -22 -22 -22 -22 -22 -22 -21 -21 -21 -21 -21 -21 -21 -20 -20 -20 -20 -19 -19 -19 -19 -19 -19 -18 -19 -18 -18 -18 -18 -18 -17 -17 -17 -16 -16 -16 -15 -15 -15 -15 -15 -15 -15
-22 -22 -22 -22 -22 -22 -22 -22 -22 -22 -21 -21 -21 -21 -21 -21 -21 -21 -21 -21 -21 -21 -21 -21 -20 -21 -21 -20 -20 -19 -19 -19 -19 -19 -19 -18 -18 -18 -18 -18 -17 -17 -17 -17 -17 -17 -16 -16 -16 -16 -16 -16 -16 -16
-21 -21 -21 -22 -22 -22 -21 -21 -21 -21 -21 -21 -21 -21 -21 -21 -20 -20 -20 -20 -20 -20 -21 -20 -20 -20 -20 -20 -20 -20 -19 -19 -19 -19 -19 -19 -19 -18 -18 -18 -18 -17 -17 -17 -17 -17 -16 -17 -17 -17 -17 -16 -16 -16
-21 -21 -21 -21 -21 -21 -21 -21 -21 -21 -21 -21 -21 -21 -21 -21 -20 -20 -20 -20 -20 -20 -20 -19 -19 -19 -19 -19 -19 -19 -19 -19 -19 -19 -19 -19 -18 -19 -18 -18 -18 -18 -18 -18 -18 -17 -18 -18 -18 -17 -17 -17 -17 -16
-20 -20 -20 -20 -20 -20 -20 -21 -21 -21 -21 -20 -20 -20 -20 -20 -20 -20 -20 -20 -20 -20 -20 -20 -19 -19 -19 -19 -19 -19 -19 -19 -19 -19 -19 -19 -19 -19 -18 -18 -18 -18 -18 -19 -19 -19 -18 -18 -18 -18 -17 -17 -17 -17
-20 -20 -20 -20 -20 -20 -20 -20 -20 -20 -20 -20 -20 -20 -20 -20 -20 -20 -20 -20 -19 -19 -19 -19 -19 -19 -19 -19 -19 -19 -19 -19 -19 -19 -19 -19 -19 -18 -18 -18 -19 -19 -19 -18 -18 -18 -18 -18 -17 -17 -17 -17 -17 -17
-19 -19 -19 -19 -20 -20 -20 -20 -20 -20 -19 -19 -20 -20 -20 -20 -20 -20 -20 -20 -20 -20 -20 -19 -19 -19 -19 -19 -19 -19 -19 -19 -19 -19 -19 -19 -19 -19 -19 -19 -19 -19 -18 -18 -18 -18 -18 -18 -18 -18 -18 -18 -18 -18
-19 -19 -19 -20 -20 -20 -20 -20 -20 -20 -20 -20 -20 -20 -20 -20 -20 -20 -20 -20 -20 -20 -20 -20 -20 -20 -20 -19 -19 -19 -19 -19 -19 -19 -19 -19 -19 -19 -19 -18 -18 -18 -18 -18 -18 -18 -18 -18 -18 -18 -18 -18 -18 -18
-19 -19 -19 -20 -20 -19 -19 -19 -19 -19 -20 -20 -20 -20 -20 -20 -20 -20 -20 -20 -19 -19 -19 -19 -19 -19 -19 -19 -19 -19 -19 -19 -19 -19 -19 -19 -19 -19 -19 -19 -18 -18 -18 -18 -18 -18 -18 -18 -18 -18 -18 -18 -18 -18
-19 -19 -19 -19 -19 -20 -20 -20 -20 -20 -20 -20 -20 -20 -20 -20 -19 -19 -19 -19 -19 -19 -19 -19 -19 -19 -20 -20 -20 -20 -20 -19 -19 -19 -19 -19 -19 -19 -19 -19 -19 -19 -19 -19 -19 -19 -19 -19 -19 -19 -19 -19 -19 -19
-19 -19 -19 -19 -19 -19 -19 -20 -20 -20 -20 -20 -20 -20 -20 -20 -20 -20 -20 -20 -20 -19 -19 -20 -20 -19 -19 -19 -19 -20 -20 -19 -19 -19 -19 -19 -19 -19 -19 -19 -19 -19 -20 -20 -20 -20 -20 -20 -20 -20 -20 -20 -20 -20
-19 -19 -19 -19 -19 -19 -19 -19 -19 -19 -20 -20 -20 -19 -19 -19 -19 -19 -19 -19 -19 -19 -19 -19 -19 -19 -19 -19 -19 -19 -19 -19 -19 -20 -20 -20 -20 -20 -20 -20 -20 -20 -20 -20 -20 -20 -20 -20 -20 -20 -20 -20 -20 -20
-19 -19 -19 -19 -19 -19 -19 -19 -19 -19 -19 -19 -19 -19 -19 -19 -19 -19 -19 -19 -19 -19 -20 -20 -20 -20 -20 -20 -20 -20 -20 -20 -20 -21 -21 -21 -21 -21 -21 -21 -21 -21 -21 -21 -21 -21 -21 -21 -21 -21 -21 -21 -21 -21
-19 -19 -19 -19 -19 -19 -19 -19 -19 -19 -19 -19 -19 -19 -19 -19 -19 -19 -19 -20 -20 -20 -20 -20 -20 -20 -21 -21 -21 -21 -21 -21 -21 -21 -21 -21 -21 -21 -21 -21 -21 -21 -21 -21 -21 -21 -21 -21 -21 -21 -22 -22 -22 -22
-19 -19 -19 -19 -19 -19 -19 -19 -19 -19 -19 -19 -19 -19 -19 -19 -20 -20 -20 -20 -20 -20 -20 -20 -20 -20 -20 -20 -20 -21 -21 -21 -21 -21 -21 -21 -21 -21 -21 -21 -22 -22 -22 -22 -22 -22 -23 -23 -23 -23 -23 -24 -24 -24
-19 -19 -19 -19 -19 -19 -19 -19 -19 -19 -19 -19 -19 -19 -20 -20 -19 -19 -20 -20 -20 -20 -20 -20 -20 -20 -20 -20 -20 -20 -21 -21 -21 -21 -21 -22 -22 -22 -23 -23 -23 -23 -23 -24 -24 -24 -24 -24 -24 -25 -25 -25 -25 -25
Height
5551 5543 5537 5533 5527 5522 5516 5512 5508 5504 5501 5499 5498 5496 5496 5496 5497 5500 5505 5509 5515 5523 5529 5535 5543 5550 5558 5564 5572 5582 5594 5604 5616 5627 5636 5644 5655 5663 5672 5680 5685 5692 5700 5704 5711 5718 5724 5729 5736 5741 5749 5754 5762 5769
5534 5528 5523 5520 5516 5511 5508 5503 5500 5497 5495 5493 5491 5490 5489 5490 5491 5495 5499 5504 5509 5516 5523 5529 5537 5542 5548 5555 5565 5575 5586 5598 5609 5619 5628 5638 5648 5655 5663 5671 5679 5685 5693 5698 5701 5708 5716 5722 5730 5736 5742 5749 5756 5760
5518 5512 5509 5508 5507 5504 5500 5497 5493 5491 5489 5487 5486 5485 5486 5486 5488 5492 5496 5501 5505 5512 5519 5525 5531 5537 5544 5552 5560 5571 5580 5592 5605 5614 5624 5633 5641 5648 5656 5665 5672 5679 5685 5688 5695 5699 5701 5713 5720 5727 5733 5739 5746 5752
5507 5501 5499 5499 5499 5497 5494 5491 5488 5487 5485 5484 5483 5483 5483 5485 5487 5492 5495 5500 5504 5510 5516 5524 5529 5534 5541 5549 5556 5563 5574 5588 5598 5609 5617 5625 5633 5642 5650 5657 5666 5673 5679 5684 5688 5688 5696 5706 5712 5719 5724 5730 5736 5742
5500 5495 5492 5493 5493 5492 5490 5488 5486 5484 5483 5482 5482 5482 5483 5486 5489 5492 5495 5500 5505 5511 5516 5522 5527 5534 5541 5546 5554 5562 5571 5582 5593 5604 5612 5619 5627 5637 5646 5653 5659 5666 5672 5677 5682 5685 5692 5699 5705 5712 5716 5722 5728 5734
5496 5492 5489 5490 5490 5489 5487 5486 5484 5483 5483 5483 5483 5483 5485 5488 5491 5494 5498 5502 5505 5511 5517 5522 5529 5535 5541 5546 5553 5561 5569 5580 5589 5595 5603 5614 5625 5634 5642 5647 5653 5658 5664 5668 5674 5680 5686 5692 5699 5703 5707 5711 5716 5723
5496 5492 5491 5491 5490 5489 5488 5486 5485 5485 5485 5484 5485 5487 5489 5491 5494 5497 5501 5505 5509 5514 5519 5525 5531 5538 5543 5548 5554 5562 5570 5579 5585 5594 5604 5613 5621 5628 5636 5643 5650 5653 5659 5664 5669 5674 5677 5680 5686 5693 5699 5703 5707 5712
5500 5498 5495 5493 5492 5491 5490 5489 5488 5488 5487 5488 5489 5491 5493 5495 5497 5501 5504 5509 5514 5519 5524 5530 5536 5541 5546 5551 5556 5564 5572 5580 5587 5596 5604 5613 5619 5625 5630 5637 5645 5650 5655 5660 5665 5670 5673 5676 5680 5686 5690 5691 5699 5703
5507 5503 5500 5498 5496 5495 5494 5493 5492 5492 5492 5493 5494 5495 5497 5500 5503 5506 5510 5514 5519 5526 5530 5535 5539 5544 5549 5554 5559 5566 5574 5580 5586 5595 5604 5613 5615 5621 5626 5634 5640 5645 5650 5657 5662 5664 5666 5671 5678 5682 5683 5685 5690 5695
5514 5509 5506 5503 5502 5500 5499 5498 5497 5497 5497 5498 5500 5501 5503 5506 5509 5513 5519 5522 5527 5531 5535 5540 5544 5548 5554 5558 5563 5570 5576 5583 5590 5597 5604 5609 5614 5620 5625 5631 5636 5639 5646 5651 5657 5657 5658 5659 5664 5672 5674 5683 5689 5692
5520 5515 5511 5509 5508 5507 5506 5505 5504 5504 5504 5505 5506 5509 5511 5514 5517 5521 5525 5529 5533 5537 5542 5546 5550 5553 5558 5563 5567 5573 5579 5586 5591 5598 5603 5608 5612 5618 5618 5626 5634 5630 5637 5641 5647 5652 5657 5662 5664 5667 5672 5678 5682 5684
5526 5522 5520 5517 5515 5514 5513 5512 5512 5511 5512 5514 5515 5518 5520 5523 5527 5529 5532 5537 5539 5543 5547 5551 5554 5558 5562 5566 5571 5577 5582 5587 5592 5597 5602 5608 5611 5613 5617 5621 5626 5631 5636 5641 5647 5651 5657 5661 5662 5665 5668 5671 5674 5676
5535 5532 5530 5527 5524 5522 5521 5520 5520 5520 5522 5523 5525 5527 5529 5532 5534 5537 5539 5543 5546 5549 5551 5554 5559 5563 5568 5571 5575 5579 5583 5589 5594 5598 5601 5606 5610 5615 5620 5625 5630 5634 5639 5642 5646 5650 5655 5657 5659 5661 5662 5665 5667 5669
5545 5543 5539 5536 5534 5532 5531 5530 5530 5530 5531 5532 5533 5535 5537 5537 5540 5541 5544 5547 5550 5553 5555 5558 5563 5566 5569 5574 5578 5582 5587 5591 5595 5598 5602 5606 5610 5614 5619 5623 5627 5630 5635 5638 5642 5646 5649 5650 5652 5655 5656 5657 5658 5657
5556 5553 5550 5547 5544 5543 5542 5540 5540 5539 5537 5540 5542 5543 5544 5544 5545 5546 5548 5551 5554 5557 5559 5564 5568 5571 5573 5576 5580 5586 5590 5591 5596 5601 5603 5607 5612 5616 5619 5623 5626 5630 5632 5636 5639 5641 5642 5645 5647 5649 5649 5650 5650 5650
5566 5563 5560 5558 5556 5554 5553 5552 5552 5552 5550 5550 5549 5550 5551 5552 5552 5554 5555 5556 5559 5561 5564 5568 5571 5574 5577 5581 5586 5588 5591 5594 5599 5602 5606 5609 5612 5616 5619 5622 5625 5628 5631 5633 5635 5636 5637 5638 5640 5641 5641 5642 5642 5643
5577 5573 5570 5567 5565 5564 5563 5563 5560 5561 5561 5559 5559 5559 5560 5560 5560 5561 5562 5563 5565 5567 5570 5573 5575 5576 5581 5583 5587 5590 5594 5596 5600 5604 5607 5610 5614 5617 5620 5622 5625 5626 5628 5630 5631 5631 5632 5633 5634 5635 5635 5635 5636 5635
5587 5583 5581 5578 5576 5574 5572 5570 5571 5570 5569 5568 5568 5567 5567 5567 5567 5567 5567 5568 5569 5570 5573 5577 5579 5580 5584 5587 5590 5593 5595 5597 5602 5605 5608 5610 5613 5616 5619 5622 5623 5623 5625 5626 5626 5626 5627 5627 5627 5626 5627 5627 5627 5627
5596 5592 5590 5588 5586 5583 5581 5580 5579 5578 5577 5576 5576 5575 5575 5575 5575 5574 5575 5574 5575 5577 5579 5582 5584 5585 5588 5591 5594 5598 5601 5603 5605 5608 5609 5612 5614 5615 5617 5619 5620 5620 5621 5621 5621 5620 5619 5619 5619 5619 5618 5618 5618 5618
5604 5600 5598 5595 5593 5591 5589 5587 5586 5585 5584 5584 5583 5582 5582 5583 5583 5583 5583 5584 5584 5586 5587 5589 5591 5593 5594 5597 5600 5602 5603 5604 5606 5609 5611 5613 5614 5615 5616 5617 5617 5616 5615 5615 5614 5614 5614 5615 5614 5614 5614 5613 5613 5613
5610 5607 5604 5602 5599 5597 5596 5594 5593 5592 5592 5591 5590 5590 5590 5590 5590 5590 5591 5591 5592 5592 5594 5596 5597 5599 5600 5602 5604 5605 5607 5608 5609 5610 5611 5612 5613 5613 5612 5612 5611 5610 5610 5609 5608 5608 5607 5606 5605 5605 5605 5604 5604 5603
5619 5614 5612 5609 5606 5604 5602 5601 5600 5599 5599 5598 5598 5597 5597 5597 5597 5597 5598 5598 5599 5600 5600 5601 5602 5603 5604 5604 5605 5606 5607 5608 5609 5610 5610 5610 5610 5610 5609 5608 5607 5607 5606 5604 5603 5602 5601 5600 5598 5597 5596 5595 5594 5593
5628 5624 5620 5617 5614 5612 5611 5608 5607 5606 5605 5604 5604 5603 5603 5603 5603 5603 5603 5603 5604 5605 5605 5606 5606 5607 5607 5608 5608 5609 5609 5609 5609 5608 5608 5606 5606 5605 5604 5604 5603 5601 5600 5598 5597 5595 5594 5593 5592 5591 5589 5588 5586 5585
5635 5632 5629 5624 5622 5620 5619 5617 5616 5614 5611 5611 5611 5610 5610 5611 5611 5609 5609 5610 5609 5610 5611 5611 5611 5611 5611 5611 5611 5610 5609 5608 5608 5606 5605 5604 5602 5601 5600 5599 5597 5595 5594 5592 5590 5588 5587 5585 5583 5581 5580 5578 5576 5574
5644 5639 5635 5632 5630 5628 5627 5625 5624 5622 5620 5620 5619 5618 5618 5617 5617 5616 5615 5615 5615 5615 5615 5614 5614 5613 5613 5613 5612 5610 5609 5607 5606 5605 5603 5601 5599 5597 5595 5592 5590 5588 5585 5583 5581 5578 5576 5574 5572 5570 5567 5565 5563 5561
5648 5645 5642 5639 5638 5636 5634 5632 5630 5629 5627 5627 5626 5625 5624 5624 5623 5621 5621 5620 5620 5619 5619 5618 5617 5616 5615 5613 5612 5610 5608 5606 5604 5601 5599 5597 5594 5592 5589 5586 5583 5580 5577 5575 5572 5569 5566 5563 5560 5557 5554 5552 5549 5546
5654 5652 5650 5648 5645 5644 5642 5640 5638 5636 5635 5633 5632 5631 5630 5630 5628 5628 5627 5626 5624 5623 5621 5620 5618 5616 5615 5613 5612 5609 5607 5605 5602 5599 5596 5592 5589 5585 5582 5578 5574 5570 5566 5563 5559 5555 5552 5549 5545 5542 5538 5535 5531 5528
5659 5657 5655 5654 5652 5650 5647 5646 5645 5643 5642 5640 5639 5636 5635 5634 5633 5631 5630 5629 5627 5625 5623 5621 5619 5617 5614 5611 5608 5605 5602 5599 5595 5590 5585 5581 5577 5573 5569 5564 5560 5556 5552 5548 5543 5538 5534 5531 5527 5522 5518 5514 5510 5506
5662 5659 5658 5656 5655 5653 5651 5650 5648 5646 5644 5642 5641 5639 5637 5635 5633 5632 5631 5629 5626 5624 5621 5619 5616 5613 5611 5607 5604 5599 5595 5590 5585 5580 5575 5570 5565 5559 5554 5549 5544 5539 5534 5529 5524 5520 5515 5510 5505 5501 5496 5492 5487 5483
5662 5661 5660 5658 5656 5655 5652 5650 5649 5646 5645 5643 5642 5639 5638 5636 5633 5630 5628 5626 5623 5620 5617 5614 5610 5606 5602 5597 5592 5587 5582 5577 5571 5566 5561 5557 5551 5546 5540 5535 5529 5524 5518 5512 5506 5501 5495 5489 5483 5477 5472 5466 5461 5456
5665 5663 5661 5659 5657 5655 5653 5650 5648 5647 5645 5644 5641 5638 5634 5633 5630 5627 5624 5622 5619 5616 5611 5607 5602 5598 5594 5589 5583 5577 5571 5565 5559 5553 5547 5541 5535 5529 5523 5517 5511 5505 5499 5493 5486 5480 5474 5468 5462 5455 5449 5443 5437 5432
5668 5665 5663 5660 5658 5656 5653 5651 5649 5646 5643 5640 5636 5633 5632 5630 5627 5624 5621 5618 5614 5609 5604 5599 5595 5589 5583 5577 5570 5564 5557 5551 5545 5539 5533 5526 5519 5512 5505 5499 5492 5485 5478 5472 5465 5458 5452 5446 5439 5433 5427 5420 5414 5408
5670 5668 5666 5663 5661 5657 5655 5652 5649 5646 5643 5640 5637 5634 5631 5628 5624 5621 5617 5613 5608 5603 5597 5591 5584 5578 5571 5564 5557 5551 5544 5537 5530 5522 5515 5508 5501 5494 5487 5480 5474 5467 5461 5454 5448 5441 5435 5428 5421 5414 5407 5400 5394 5387
Wind_Speed
60 55 49 43 36 41 36 34 33 27 24 23 23 23 25 26 23 22 20 22 25 33 27 29 30 32 30 34 43 37 42 46 45 45 49 45 43 48 47 45 42 39 49 54 51 41 38 43 30 30 35 34 35 40
55 51 46 41 34 34 32 28 27 24 21 20 19 19 16 15 16 15 15 17 18 20 25 28 27 31 31 33 34 35 39 45 43 42 46 41 40 45 47 41 38 37 39 36 50 51 40 42 34 30 30 31 39 38
48 43 37 31 28 26 25 25 23 19 19 18 15 12 10 13 12 14 15 14 16 19 23 26 27 27 26 27 31 35 38 41 38 38 39 40 39 43 42 39 32 33 33 33 30 54 53 39 37 37 37 37 39 35
40 31 27 22 22 23 21 21 17 16 13 9 8 7 8 9 10 10 9 9 12 14 18 19 20 23 23 22 29 37 39 42 39 35 32 34 41 39 38 35 27 30 31 25 36 20 35 38 38 37 40 40 39 39
32 26 21 18 19 19 17 15 13 9 6 5 4 4 3 6 7 8 10 8 15 17 17 18 19 24 23 24 28 33 40 43 39 38 33 32 37 36 32 29 26 24 24 23 29 39 26 36 34 36 38 42 46 43
24 19 15 11 15 14 11 10 7 5 5 4 2 3 6 8 9 9 15 5 19 17 17 17 23 24 21 20 32 32 38 47 41 46 30 42 36 30 29 28 25 21 21 18 20 23 36 32 30 40 40 44 44 45
19 15 11 11 10 8 9 8 6 6 5 5 6 9 9 8 8 14 8 19 21 17 19 23 23 23 20 19 25 25 26 31 37 26 36 24 25 27 30 30 29 26 26 24 25 21 23 25 35 39 39 52 47 42
20 16 14 12 11 10 9 8 8 8 8 10 10 10 10 11 13 12 21 24 19 23 24 24 23 22 21 21 21 32 28 22 33 21 31 20 17 19 29 35 35 31 25 20 26 28 26 24 25 29 30 40 36 31
24 20 16 14 12 11 10 10 10 10 12 12 12 12 13 17 14 23 29 21 24 27 26 25 23 22 24 23 25 35 34 34 28 22 23 22 22 26 23 29 29 28 30 29 26 35 33 28 30 24 29 19 14 12
25 19 15 14 13 13 13 13 14 14 15 14 16 15 16 20 25 29 26 27 28 26 24 24 22 24 26 25 26 28 34 30 23 25 27 33 27 26 31 32 35 30 38 40 35 19 18 10 14 10 7 5 12 16
24 20 18 17 16 16 17 16 17 18 17 16 19 22 24 25 24 26 23 25 25 22 24 24 24 26 25 24 25 26 28 27 24 20 23 27 27 13 28 37 29 23 23 28 29 17 6 5 4 5 9 13 17 19
23 22 22 20 19 18 18 18 18 17 20 23 24 23 22 22 21 23 21 21 20 18 18 21 20 19 20 22 25 24 25 25 23 23 21 28 23 24 18 21 36 26 17 17 15 12 13 15 15 18 19 21 22 24
24 26 28 26 22 20 20 20 21 24 25 24 23 21 19 15 13 13 19 18 15 14 14 23 25 19 21 21 23 23 23 19 18 16 19 22 22 25 24 29 28 23 28 23 19 17 20 21 21 21 22 24 25 26
26 27 29 25 24 25 24 26 29 28 26 25 22 20 20 20 15 17 16 13 15 15 17 25 24 19 20 22 20 19 17 19 19 18 16 19 18 19 17 19 25 24 20 19 19 21 21 22 23 22 22 24 23 22
25 30 30 30 28 29 29 26 22 25 28 31 23 21 17 15 13 12 14 17 17 18 17 25 21 17 17 16 19 15 15 20 17 7 12 19 19 17 18 20 19 19 19 19 20 20 19 19 21 22 21 19 19 20
24 27 29 28 24 27 27 24 24 21 21 21 23 20 20 22 19 18 20 14 13 19 18 19 18 8 20 17 20 18 16 15 13 13 15 16 19 17 17 20 20 16 19 17 17 16 15 15 16 18 19 19 19 20
26 28 28 25 23 23 23 22 23 20 21 24 22 19 17 16 16 14 13 10 9 11 15 12 14 13 18 21 24 19 13 16 14 6 8 15 18 23 22 19 20 16 14 13 12 11 12 13 15 16 16 17 18 19
25 27 28 29 29 25 21 20 16 18 22 20 20 16 16 17 17 14 11 9 7 10 14 16 9 9 14 22 23 12 10 17 15 15 13 10 16 14 12 11 9 9 10 11 11 11 12 14 16 16 16 17 17 15
23 22 21 22 24 27 25 21 20 19 20 21 21 20 19 19 22 25 24 21 17 19 17 15 14 13 15 18 16 13 11 12 10 8 6 6 7 6 6 8 9 9 10 12 13 14 15 16 15 14 14 14 14 15
22 21 20 20 20 19 20 20 20 21 21 21 20 19 18 19 19 18 19 19 20 18 17 14 14 13 12 12 11 8 6 6 5 5 5 5 5 7 9 11 13 15 16 17 17 18 19 19 17 16 15 15 17 18
16 15 17 18 19 19 19 19 20 20 19 19 19 19 18 17 18 19 19 19 18 17 17 17 16 15 13 12 10 8 7 6 6 7 9 10 9 10 12 13 14 15 16 17 17 19 20 21 19 19 19 20 21 23
27 26 23 17 15 16 17 17 17 17 17 19 18 18 18 17 17 17 15 14 13 12 12 12 11 10 10 9 8 8 7 7 7 8 9 11 11 12 14 15 15 15 17 18 18 19 20 21 22 22 23 24 26 27
22 23 23 23 23 23 23 21 19 19 16 15 15 17 18 18 17 17 16 18 17 14 13 12 13 11 9 7 8 7 4 2 3 5 7 9 11 13 15 16 18 18 20 21 22 23 23 24 25 26 29 30 32 33
21 20 18 20 22 23 22 23 24 25 22 18 22 24 21 22 25 20 16 15 15 14 15 12 12 10 8 4 4 5 6 7 6 7 9 9 10 13 15 18 21 23 25 25 26 27 28 29 31 33 34 35 35 35
16 19 21 22 21 20 19 20 19 22 22 25 19 18 20 18 18 20 19 15 14 13 9 6 8 7 5 6 9 10 11 11 11 11 12 13 15 16 18 20 22 25 26 28 28 29 30 31 33 34 35 36 37 38
22 23 23 22 21 20 20 20 20 20 18 17 18 18 16 12 13 15 12 13 13 13 11 10 10 11 12 12 13 14 15 15 16 18 19 20 21 22 23 25 26 27 28 29 30 32 33 34 36 37 39 40 42 43
19 20 20 20 20 20 20 19 17 17 16 17 19 20 18 18 19 17 15 15 13 12 11 12 12 11 10 11 11 13 14 16 18 19 21 23 24 26 28 30 31 33 34 36 37 38 39 41 42 42 43 44 45 46
15 16 16 16 16 18 18 18 17 16 15 15 13 13 13 13 13 12 13 13 12 11 12 13 13 11 10 13 16 19 25 29 33 34 34 35 35 36 37 39 40 41 43 43 45 46 47 48 49 50 51 52 54 55
16 10 9 11 13 14 17 16 16 16 14 13 12 12 11 17 18 16 16 17 17 18 16 17 20 20 23 26 28 29 35 40 41 41 41 42 43 44 45 46 47 48 49 50 51 52 53 53 54 55 56 56 57 58
14 13 12 11 13 15 17 18 18 14 11 14 15 17 13 14 18 20 21 21 23 23 26 30 32 31 35 39 41 45 47 46 46 45 45 44 44 44 45 46 47 48 49 50 51 52 53 55 56 58 59 60 61 62
13 16 16 15 16 18 16 16 18 18 16 17 19 21 17 13 20 25 28 25 22 23 32 32 32 36 37 40 43 44 46 46 46 46 45 46 46 47 48 49 50 50 51 51 52 53 54 56 57 59 60 61 62 63
20 18 17 17 18 17 16 17 16 17 18 19 26 28 19 17 15 25 26 28 33 34 35 36 37 38 39 40 42 43 44 45 45 46 47 48 49 50 50 50 51 51 52 53 54 54 54 53 53 52 52 52 53 53
20 19 19 18 18 19 19 18 19 18 19 18 18 20 19 20 22 23 24 26 28 31 33 36 38 40 41 43 44 46 47 49 50 51 51 51 51 50 49 47 44 43 42 43 44 44 45 45 46 47 48 48 49 49
Wind_Direction
312 309 305 301 302 308 306 305 306 304 300 298 293 288 284 270 264 260 251 244 239 237 232 228 226 233 230 232 223 215 204 209 214 212 215 220 216 218 219 221 226 233 233 240 220 225 221 215 210 218 216 219 211 217
307 306 304 299 298 308 308 306 307 306 303 303 298 295 280 265 252 241 233 229 218 218 216 213 214 222 218 215 213 206 199 204 208 210 213 216 215 218 221 225 226 227 232 238 231 217 222 218 217 216 216 219 216 223
310 305 298 293 300 310 310 311 310 306 305 303 294 282 276 261 232 218 220 218 208 202 207 208 215 218 207 201 200 188 191 196 202 206 212 214 214 218 221 226 229 229 229 240 230 219 220 208 212 215 211 216 214 219
319 312 297 288 301 311 312 314 316 316 311 304 300 284 278 240 219 212 209 195 191 189 199 207 206 199 183 189 180 182 184 189 193 193 203 211 214 215 220 224 224 228 231 236 229 233 177 197 208 212 210 212 215 222
326 321 307 283 309 315 317 321 322 320 314 316 303 296 214 196 192 174 161 162 172 184 184 184 192 165 180 184 178 181 185 185 192 182 198 193 205 207 214 220 221 217 221 227 231 245 194 203 206 213 212 213 215 219
332 339 335 298 322 324 328 334 335 339 350 342 314 153 150 156 144 151 152 150 167 152 165 169 154 163 173 178 178 178 182 185 191 202 177 186 205 197 201 209 211 211 206 206 215 226 213 196 192 210 213 211 213 217
354 3 11 346 348 357 360 0 13 16 28 63 106 121 131 130 133 140 130 150 134 148 152 144 151 162 167 170 169 160 177 194 201 198 212 191 186 191 207 209 206 209 212 206 200 217 226 239 222 200 213 221 223 231
19 22 20 27 24 23 24 32 49 49 63 90 107 123 130 131 130 128 136 130 132 140 139 146 150 155 163 167 170 156 161 174 195 193 204 205 208 185 203 208 209 217 230 218 204 209 211 208 229 242 250 254 248 229
21 26 29 31 37 41 43 53 64 74 89 96 104 110 123 129 131 135 127 134 136 139 138 140 147 151 154 161 169 161 162 178 165 171 176 184 199 195 210 203 205 215 214 210 218 215 212 206 197 221 216 205 194 202
19 20 29 38 44 52 57 64 73 81 95 97 103 114 120 129 128 130 132 124 128 132 135 130 132 142 145 156 162 173 171 175 179 181 185 193 158 181 187 200 210 212 205 211 215 174 180 174 180 215 166 192 199 217
21 35 48 56 60 67 74 71 77 91 94 97 108 115 117 122 128 138 144 141 134 135 139 122 125 140 144 151 160 167 180 185 183 186 185 181 181 163 164 174 175 173 176 166 163 175 204 256 247 262 260 260 257 257
40 49 57 60 66 71 70 68 83 90 100 108 110 110 115 123 132 143 148 143 142 131 139 158 144 148 146 147 153 165 170 171 178 183 194 188 201 209 201 157 160 167 180 176 186 193 218 235 250 256 260 262 264 265
48 57 58 56 70 68 74 82 90 98 99 100 103 108 114 120 126 137 147 153 156 148 154 162 167 154 142 162 167 175 177 174 175 182 200 204 206 203 206 211 199 193 178 185 192 213 238 251 258 264 267 267 262 260
60 58 55 59 67 76 84 91 94 96 98 99 97 87 80 85 93 122 139 145 158 166 163 162 158 158 161 157 168 176 164 159 177 189 190 189 193 198 214 213 224 230 238 242 244 245 246 251 255 255 258 263 265 265
59 61 63 62 72 86 91 92 93 104 95 64 78 70 85 85 82 109 131 133 142 165 157 148 144 170 187 177 154 152 171 181 165 169 198 193 189 196 204 204 205 213 221 226 231 235 240 246 256 259 256 258 265 270
57 57 54 57 76 89 92 94 88 75 65 58 69 93 113 75 88 101 104 104 136 161 162 166 145 139 158 150 148 169 175 178 161 184 175 159 185 196 200 206 205 213 223 228 244 246 252 253 252 252 255 261 266 268
50 53 57 64 77 87 89 88 80 68 67 73 79 93 98 77 106 101 105 115 128 136 163 164 170 166 156 152 170 173 156 184 178 189 210 203 198 205 212 223 225 226 230 233 235 241 249 256 260 263 268 268 263 263
47 51 58 64 65 70 69 73 70 66 64 71 81 90 90 85 87 104 101 101 105 145 172 183 180 159 149 174 182 159 146 131 144 162 172 173 187 185 190 199 206 211 224 233 244 261 270 272 272 269 262 256 254 250
51 52 53 55 57 59 61 62 66 65 73 74 73 75 81 80 80 78 74 78 107 99 103 122 126 115 110 121 141 135 139 150 153 157 150 155 160 169 195 215 231 243 256 266 267 266 271 275 279 277 278 282 279 277
58 59 60 60 54 50 55 63 70 72 74 76 79 85 86 84 83 85 85 83 87 91 97 105 104 104 121 121 124 122 112 119 134 150 176 198 220 239 252 261 267 269 272 275 275 274 272 274 273 270 273 278 281 279
57 55 55 54 54 56 60 68 70 70 73 75 75 76 82 85 84 86 89 91 93 96 101 105 109 111 119 128 137 152 162 172 187 201 210 220 233 246 256 263 272 280 286 288 284 283 282 283 283 286 286 282 280 281
51 56 58 56 54 52 54 60 64 69 74 77 77 79 80 82 85 84 82 80 83 91 96 95 98 118 122 129 148 166 181 201 223 239 246 250 256 258 261 267 270 280 285 288 289 287 283 282 283 283 283 285 287 285
44 53 58 61 63 61 58 62 67 68 69 68 72 80 83 81 77 72 78 81 82 83 81 83 87 91 90 83 71 58 43 9 300 294 287 281 275 270 272 271 274 278 288 292 290 286 282 281 280 279 279 278 278 278
45 51 70 68 61 57 63 70 73 64 65 81 87 83 78 89 92 95 81 85 87 82 80 87 85 73 67 69 330 360 12 1 341 321 319 316 303 293 285 282 282 286 287 287 286 284 283 281 279 278 277 277 278 279
46 54 57 59 57 61 67 72 54 65 68 64 86 87 90 88 94 84 72 67 61 72 88 73 45 44 37 19 6 0 354 347 340 330 319 313 309 304 299 295 293 292 292 292 292 290 288 286 285 284 283 282 281 280
57 59 57 57 57 60 61 58 56 56 58 65 70 66 61 63 75 81 74 68 71 64 60 57 50 42 33 23 10 0 351 342 334 328 323 318 313 309 305 302 299 298 296 294 292 291 290 289 288 286 285 284 284 284
49 53 57 62 61 57 53 51 52 55 60 63 67 68 66 61 62 61 59 59 56 48 38 29 23 19 15 7 355 344 335 328 321 316 311 308 306 304 301 300 299 298 297 297 295 294 293 292 290 289 287 286 284 283
38 40 45 46 42 44 46 45 41 40 43 45 47 50 52 46 40 38 30 20 15 11 1 347 331 326 326 336 340 340 336 331 328 323 319 315 312 309 308 305 303 301 299 298 296 295 294 293 291 290 289 288 287 286
9 20 40 36 40 26 15 13 22 29 26 22 19 17 20 27 14 358 355 349 341 338 334 331 331 330 330 323 321 319 318 318 317 317 314 312 309 308 306 304 303 301 300 298 297 295 294 293 292 292 291 289 288 287
32 41 22 22 13 5 5 8 14 14 13 9 3 354 341 341 349 353 354 342 323 316 319 319 316 315 320 319 319 314 314 316 316 314 312 308 305 303 301 300 298 297 296 296 296 296 295 295 295 294 294 293 292 291
34 31 33 22 17 14 7 6 1 0 1 359 346 340 343 331 343 359 354 340 321 319 327 329 319 310 306 306 309 312 312 312 312 312 311 309 307 306 305 305 304 303 302 301 300 299 297 296 294 292 291 290 290 289
33 30 23 19 19 12 7 6 6 360 354 350 7 346 343 337 330 328 321 312 319 322 320 318 315 314 314 315 315 315 315 315 315 314 313 312 311 310 309 308 307 305 303 301 300 300 300 300 300 299 297 296 295 294
22 18 16 15 13 11 9 11 9 4 1 360 353 353 350 342 336 337 332 327 324 325 326 326 325 323 321 319 318 318 318 318 317 316 316 315 314 313 313 313 313 312 312 311 311 310 309 308 307 305 303 302 300 299